Lapse_Rate
4.6 4.4 4.2 4.2 4.1 4.1 4.1 4.2 4.2 4.2 4.2 4.2 4.1 4.2 4.3 4.3 4.3 4.3 4.1 4.0 3.9 3.8 3.7 3.5 3.4 3.4 3.7 3.8 3.6 4.0 4.1 4.0 4.0 4.0 4.2 4.3 4.2 4.2 3.9 3.9 4.2 4.1 4.3 4.4 4.2 4.1 4.2
4.6 4.5 4.3 4.2 4.2 4.2 4.2 4.2 4.3 4.2 4.2 4.1 4.0 4.1 4.1 4.3 4.2 4.1 3.8 3.7 3.5 3.4 3.4 3.4 3.5 3.5 3.8 4.1 3.9 4.4 4.9 4.6 3.9 4.0 4.2 4.1 4.1 4.3 4.5 4.7 4.8 4.8 4.9 4.9 4.8 4.6 4.7
4.4 4.4 4.3 4.3 4.2 4.0 4.0 4.1 4.3 4.1 4.3 4.3 4.5 4.6 4.4 4.3 3.9 3.6 3.4 3.3 3.1 3.2 3.3 3.5 3.6 3.9 4.1 4.2 4.5 4.7 4.4 4.3 4.4 4.4 4.2 4.2 4.5 4.8 5.3 5.3 5.4 5.8 5.5 5.4 5.6 5.5 5.7
4.5 4.3 4.3 4.1 4.0 4.1 4.2 4.2 4.3 4.4 4.5 4.6 4.6 4.4 4.0 3.5 3.4 3.2 3.2 3.1 3.2 3.2 3.6 3.7 3.8 4.4 4.6 4.7 4.7 4.3 4.1 4.3 4.1 4.4 4.9 5.3 5.5 5.5 5.9 6.0 6.1 5.7 5.8 5.6 5.8 5.8 5.5
4.4 4.2 4.0 4.0 4.0 4.0 4.2 4.4 4.5 4.4 4.3 4.2 4.0 3.8 3.4 3.2 3.1 3.2 3.3 3.3 3.4 3.6 4.2 4.1 4.3 4.8 4.5 4.2 3.8 4.0 4.3 4.9 4.8 5.2 5.8 6.0 6.2 6.2 6.3 6.4 6.1 6.0 6.2 6.7 6.5 6.3 5.9
4.2 3.9 3.9 3.8 3.8 4.0 4.2 4.3 4.0 4.0 4.0 3.8 3.6 3.5 3.4 3.2 3.3 3.4 3.6 3.8 3.8 4.0 4.4 4.2 4.4 4.4 4.2 4.3 4.1 4.2 4.5 5.0 5.5 6.0 6.3 6.4 6.6 6.7 6.8 7.3 7.3 7.7 7.9 7.5 7.0 6.9 6.5
4.0 3.8 3.8 3.8 3.7 3.8 3.7 3.8 3.9 3.9 3.8 3.7 3.7 3.6 3.5 3.4 3.4 3.6 3.8 4.1 4.2 4.4 4.7 4.7 4.8 4.6 3.6 4.0 3.7 4.4 5.1 5.4 5.8 6.3 6.7 7.1 7.1 7.0 6.5 6.4 6.3 6.2 6.4 6.6 6.6 6.7 6.3
4.1 3.9 3.8 3.4 3.4 3.6 3.7 3.7 3.9 3.9 3.7 3.8 3.8 3.6 3.6 3.8 3.9 4.0 4.1 4.3 4.3 4.3 4.5 4.0 3.3 3.5 3.5 4.0 4.3 5.0 5.4 6.0 6.5 6.7 7.1 6.7 7.1 6.1 5.9 5.6 6.0 6.1 6.4 6.5 6.6 6.6 6.0
3.8 3.5 3.5 3.3 3.7 3.8 3.9 4.0 4.0 3.9 3.7 3.7 4.0 4.0 4.2 3.9 4.2 4.4 4.5 4.4 4.6 4.8 4.9 3.8 3.5 3.6 4.3 4.4 4.8 5.4 6.0 6.6 6.7 6.6 6.7 6.7 5.9 5.9 5.7 5.4 6.0 5.7 6.0 6.4 6.0 5.7 5.9
3.6 3.5 3.4 3.5 3.9 3.8 4.0 4.2 3.9 4.0 4.0 4.2 4.1 4.2 4.5 4.4 4.6 4.4 4.4 4.7 4.8 5.0 4.8 4.0 4.3 4.4 4.5 5.1 5.2 5.4 5.1 5.6 5.8 6.2 6.6 5.8 4.9 5.5 5.7 5.4 5.3 5.5 5.7 5.8 5.8 5.8 6.6
3.9 4.1 3.8 3.5 3.6 3.8 4.1 4.1 4.1 4.2 4.3 4.3 4.3 4.4 4.5 4.6 4.5 4.6 4.8 4.9 5.1 5.0 5.4 4.6 4.8 4.7 4.9 5.6 4.9 5.1 5.4 5.7 5.9 5.8 5.9 5.3 5.3 5.7 5.6 5.3 5.4 5.3 5.6 5.8 6.0 6.0 6.0
4.1 4.1 3.7 3.9 3.9 4.2 4.4 4.4 4.5 4.4 4.2 4.2 4.7 4.8 4.7 4.8 4.8 4.9 5.0 4.9 5.1 4.9 5.0 5.0 4.9 5.1 5.0 5.1 5.2 5.3 5.9 6.0 6.2 6.1 5.3 5.1 4.7 5.5 4.8 5.7 5.5 5.0 5.8 6.5 6.4 6.0 6.3
4.2 4.1 3.8 4.1 4.4 4.6 4.4 4.2 3.9 4.3 4.7 4.9 5.0 5.0 4.8 5.0 5.0 5.0 5.0 5.0 5.4 5.0 4.7 4.4 4.7 4.9 4.8 5.0 5.4 5.3 5.2 6.0 5.3 5.4 5.5 5.6 5.3 4.8 5.3 6.4 5.6 5.6 5.6 7.2 7.4 6.9 7.4
4.1 3.7 4.1 4.5 4.7 4.4 4.2 4.3 4.7 4.9 5.1 5.1 5.1 5.1 5.0 4.7 4.8 5.0 4.8 5.1 5.0 3.4 4.0 4.5 4.7 4.7 5.3 5.3 5.1 5.2 4.8 4.7 5.2 4.9 5.0 5.2 5.9 4.7 4.7 4.7 4.6 4.8 4.8 5.8 6.6 8.2 7.8
4.1 4.3 4.6 4.7 4.3 4.3 4.7 5.0 5.1 5.2 5.2 5.3 5.2 5.0 5.0 4.8 4.8 4.5 4.7 4.6 3.0 3.2 3.3 3.8 4.8 5.1 5.0 5.4 5.3 5.2 4.5 4.5 4.8 4.9 4.7 5.1 5.4 4.4 4.3 4.4 5.3 4.6 4.2 3.4 4.1 5.5 6.7
4.5 4.7 4.7 4.7 4.6 5.0 5.1 5.3 5.3 5.3 5.4 5.3 5.1 5.1 4.8 4.3 4.2 4.2 4.7 3.7 2.9 3.3 4.0 4.6 5.0 5.1 5.2 5.2 5.3 5.4 5.2 4.8 5.5 5.1 4.9 5.0 5.2 4.6 4.8 4.3 4.1 4.0 3.5 4.4 4.8 6.2 7.7
4.7 5.0 4.7 4.8 5.1 5.2 5.4 5.3 5.3 5.5 5.3 5.1 4.9 4.4 3.9 3.7 3.7 4.8 3.6 2.8 2.9 3.5 4.4 5.2 5.4 5.5 5.3 5.0 5.6 5.7 5.3 5.4 5.5 5.7 5.1 5.1 5.1 4.7 4.6 3.7 3.4 3.5 3.7 3.5 3.5 3.9 6.3
5.0 4.6 4.9 5.2 5.3 5.3 5.3 5.2 5.5 5.5 5.2 5.0 4.5 3.9 3.3 3.4 4.7 3.5 3.0 3.1 3.6 4.4 5.3 5.6 5.8 5.9 5.8 5.9 6.1 5.7 5.4 5.2 5.0 5.2 5.2 5.3 5.3 5.2 4.3 4.1 3.9 3.2 3.3 3.4 4.4 4.5 4.3
5.0 4.9 5.2 5.4 5.4 5.3 5.3 5.4 5.3 5.1 4.9 4.5 4.2 3.5 3.1 3.7 3.4 3.0 3.0 3.8 4.5 5.2 5.7 6.0 6.1 6.1 6.0 6.2 6.2 6.0 5.8 5.4 5.9 6.0 5.9 5.6 5.5 5.3 4.9 5.0 4.3 3.5 3.4 3.5 3.7 3.7 3.8
5.3 5.2 5.4 5.4 5.3 5.3 5.3 5.2 5.2 4.9 4.5 4.2 4.3 3.6 3.1 3.4 3.2 3.3 3.6 3.9 4.7 5.3 5.8 6.2 6.0 6.3 6.4 6.3 6.3 6.1 6.4 6.1 6.0 6.2 6.0 5.8 5.7 5.7 5.0 4.3 4.0 3.8 3.9 4.0 3.6 3.9 4.0
5.3 5.4 5.4 5.4 5.3 5.3 5.3 5.2 4.9 4.6 4.4 4.4 4.5 2.9 2.8 3.0 3.0 3.4 4.1 4.5 5.2 5.7 6.1 6.3 6.5 6.7 6.5 6.3 6.3 6.1 6.3 6.6 6.3 6.2 6.1 5.7 4.3 5.1 4.5 4.9 5.1 4.3 4.1 4.0 3.5 3.3 3.8
5.2 5.5 5.3 5.4 5.3 5.2 5.3 5.0 4.7 4.3 4.3 4.7 3.9 3.3 3.2 3.6 3.3 3.9 4.4 4.7 5.2 5.7 6.1 6.2 6.4 6.2 6.4 6.3 6.0 5.8 6.0 6.0 5.6 6.1 6.4 5.8 5.0 5.1 5.2 5.5 5.4 5.1 4.8 4.2 4.2 3.7 4.1
5.3 5.5 5.4 5.3 5.1 5.2 5.1 4.8 4.6 4.5 4.3 4.2 3.8 3.6 3.8 3.3 3.3 3.9 4.1 4.7 5.3 5.9 5.9 6.2 6.4 6.3 6.1 5.9 5.9 5.8 5.9 6.0 5.8 6.1 6.3 6.1 5.6 5.6 5.7 5.7 5.5 5.6 4.2 4.2 4.2 4.3 4.5
5.5 5.4 5.4 5.3 5.1 5.2 5.1 4.8 4.6 4.4 4.2 3.9 4.0 3.9 4.0 3.2 3.5 3.7 4.6 5.3 5.6 5.8 6.2 6.5 6.6 6.6 6.0 5.9 6.1 6.2 6.3 6.2 5.8 6.1 6.0 6.0 6.0 6.0 6.0 5.8 5.8 4.8 4.7 4.7 4.7 4.6 5.1
5.6 5.4 5.4 5.1 5.1 5.2 5.0 4.8 4.5 4.3 4.2 4.0 3.9 4.1 4.2 3.7 3.4 3.9 4.9 5.6 5.9 6.1 6.3 6.4 6.5 6.8 6.7 6.6 6.5 6.4 6.4 6.4 6.3 5.9 6.1 6.0 6.3 6.1 6.5 5.8 5.6 5.2 4.9 4.6 4.7 4.7 5.2
5.4 5.5 5.2 5.1 5.2 5.2 4.9 4.7 4.4 4.2 4.1 3.9 3.9 4.1 4.1 4.2 3.3 4.1 5.2 5.9 6.3 6.4 6.6 6.7 7.0 7.2 7.4 7.2 6.6 5.6 5.4 5.8 6.0 6.6 6.6 6.6 6.6 6.5 5.8 6.3 6.2 5.2 4.9 5.5 5.1 5.0 4.9
5.4 5.5 5.1 5.2 5.5 5.0 4.9 4.6 4.3 4.1 3.9 3.7 4.0 4.0 3.7 4.1 3.6 4.2 4.7 5.5 6.2 6.8 7.1 7.3 7.4 7.1 7.1 6.7 5.7 5.5 5.2 5.3 4.9 4.6 4.7 5.2 5.6 5.0 5.5 5.6 5.4 5.0 4.9 5.2 4.9 4.3 4.5
5.6 5.3 5.2 5.3 5.4 5.0 4.8 4.6 4.3 4.0 3.8 3.7 3.7 3.6 3.3 4.0 3.6 3.9 4.4 5.1 5.7 6.3 6.9 7.3 7.3 7.3 7.1 6.7 6.2 6.0 5.6 5.6 5.3 4.9 4.8 4.7 4.7 4.9 5.0 5.7 5.7 5.0 4.8 4.2 4.1 4.4 4.3
5.5 5.4 5.3 5.4 5.4 4.9 4.7 4.4 4.3 4.0 3.6 3.4 4.1 3.1 3.1 4.2 3.5 3.7 4.3 4.9 5.4 5.8 6.3 6.8 6.9 7.1 7.2 7.1 6.9 6.5 5.9 5.5 5.4 5.1 4.8 5.0 4.6 4.7 4.7 5.4 5.2 4.9 4.7 4.6 4.4 4.3 4.6
Wind_Speed
21 20 21 22 25 22 23 22 23 24 25 26 25 26 27 27 28 28 29 29 28 25 23 19 16 14 7 5 8 5 11 12 6 5 3 9 12 14 15 8 18 23 24 24 20 19 21
22 23 23 24 22 23 24 24 25 26 26 27 27 26 28 29 29 30 31 32 30 26 23 19 14 11 4 6 2 2 7 8 6 8 5 7 7 5 8 8 8 6 11 16 14 16 17
22 24 23 22 22 23 23 24 25 27 27 27 27 27 28 29 31 31 32 32 29 27 24 16 9 6 7 9 5 10 8 8 3 5 10 10 10 8 4 10 7 10 11 12 15 16 20
23 25 20 21 22 23 25 25 27 27 28 28 28 28 29 30 31 31 32 31 29 26 17 12 7 5 4 3 11 16 15 8 5 7 6 8 6 8 11 11 14 17 14 15 9 11 15
20 21 20 21 24 25 27 26 26 27 28 29 29 29 29 30 29 31 30 30 22 10 10 5 1 4 1 4 9 15 15 10 12 3 4 4 4 6 7 9 11 10 14 18 19 9 11
20 21 22 24 24 25 25 26 27 27 28 28 28 28 28 27 26 28 31 22 6 5 9 4 6 2 6 10 7 12 16 13 4 9 2 4 2 7 7 8 13 16 15 16 19 8 8
18 20 21 22 23 24 25 25 25 26 26 27 27 27 28 27 27 20 17 4 6 2 9 4 11 4 3 8 19 20 17 12 7 4 6 3 6 9 12 12 12 13 16 20 21 17 16
17 18 20 21 22 23 24 25 26 26 27 28 28 29 29 27 25 11 8 5 4 6 7 6 1 2 4 5 7 23 23 8 5 9 10 5 8 10 10 8 7 11 16 19 19 15 9
18 20 20 21 22 23 25 26 26 27 28 27 27 29 27 26 9 4 5 6 10 7 5 2 8 6 8 6 9 18 20 10 7 9 10 6 11 12 6 10 12 8 10 11 14 15 14
18 19 20 21 22 24 26 27 28 28 28 27 27 26 22 27 1 6 1 10 12 3 4 4 5 8 15 6 7 16 17 6 6 8 9 4 12 12 10 9 15 11 7 13 15 10 7
16 17 19 22 24 26 26 28 29 30 29 27 26 24 19 8 6 4 7 16 9 3 4 6 5 4 12 11 12 18 18 4 10 5 7 9 14 14 11 13 14 5 18 18 18 14 12
16 19 21 23 25 27 28 29 30 31 30 28 27 20 12 5 4 3 17 12 3 3 1 8 5 12 12 14 10 7 15 10 7 3 10 16 10 14 12 18 7 19 12 16 13 9 8
18 20 22 25 26 28 30 32 33 33 32 29 24 12 6 5 9 21 12 2 3 3 8 10 10 13 7 13 13 13 18 26 15 8 11 6 22 7 25 12 6 22 13 3 5 6 3
20 22 23 25 27 30 31 33 34 34 32 30 21 6 6 8 18 12 3 1 8 7 6 9 13 8 7 15 10 16 7 12 18 13 7 7 5 17 17 17 11 11 8 4 5 4 5
21 23 24 26 28 31 32 33 35 36 32 28 10 2 4 15 18 4 2 8 5 6 9 12 12 6 6 12 7 6 10 12 11 16 8 6 5 9 17 20 18 8 6 11 5 7 5
22 23 25 27 30 31 33 35 36 36 33 20 2 1 11 30 18 4 8 7 3 9 11 8 9 10 8 13 8 8 11 10 12 16 6 2 1 14 14 8 19 10 8 1 1 4 2
21 23 25 28 30 32 34 35 36 36 33 9 2 3 17 29 6 9 6 6 6 11 12 10 8 6 6 7 7 8 12 4 18 16 7 5 2 8 9 16 17 13 6 3 2 3 4
23 23 26 28 31 32 34 36 37 35 30 8 3 5 16 10 7 4 7 5 8 12 14 9 5 7 5 8 8 6 9 9 19 12 6 6 2 5 7 5 9 19 14 3 3 4 4
22 23 26 28 30 33 35 38 39 36 24 2 3 3 8 10 6 6 5 6 9 12 13 8 9 8 6 5 4 7 12 12 19 14 9 5 2 4 5 2 16 17 21 8 1 1 13
22 24 25 28 30 33 35 38 40 36 23 4 3 3 5 5 4 4 4 8 6 11 7 5 9 5 5 7 9 5 9 14 11 13 15 3 8 13 11 9 10 13 22 20 10 8 10
22 24 26 28 30 32 35 37 39 35 24 4 5 4 2 5 9 11 5 6 7 9 10 12 4 11 5 5 3 7 9 13 6 17 8 4 10 16 14 11 18 20 16 19 19 14 8
22 24 25 28 27 31 33 34 37 33 14 6 4 4 4 3 4 7 12 8 9 5 10 7 5 7 11 5 4 3 5 7 10 11 6 5 5 4 4 6 4 20 19 11 12 17 12
22 24 25 25 27 30 32 32 36 32 11 4 3 3 4 8 6 5 5 5 7 6 2 2 3 1 7 6 3 2 2 3 3 8 9 4 3 2 3 3 3 7 20 13 7 13 13
22 24 23 24 25 29 30 30 31 28 16 4 3 3 4 5 7 4 5 1 5 5 3 3 1 3 1 1 3 3 5 4 1 6 9 4 2 2 2 2 5 3 16 10 6 10 17
22 21 22 22 24 27 27 30 22 22 25 7 3 3 4 5 1 2 6 4 3 2 2 3 2 2 2 3 1 2 3 3 9 16 18 9 1 3 2 4 2 2 15 16 5 3 18
20 22 20 21 24 26 28 22 29 21 13 10 4 3 5 5 8 4 2 4 4 5 0 2 0 3 3 3 5 6 7 4 10 16 14 12 10 6 3 3 3 5 22 12 3 3 20
20 20 18 19 23 24 24 24 21 21 26 15 5 7 5 6 2 0 5 3 0 0 2 3 7 5 2 4 6 6 5 2 9 12 10 15 6 12 8 3 3 9 18 9 5 10 20
17 17 17 19 21 23 22 21 24 31 27 14 3 16 4 5 3 3 4 3 1 2 4 4 3 2 2 4 3 2 5 4 2 3 6 11 8 7 6 5 5 13 12 8 7 13 17
15 15 17 18 21 21 20 20 23 23 22 20 5 8 11 5 3 2 3 1 1 1 3 3 2 1 2 3 2 2 3 2 3 6 7 5 5 5 4 6 12 12 15 3 14 18 16
Wind_Direction
350 345 341 339 340 344 346 345 347 345 345 343 341 338 333 329 326 325 322 317 316 316 315 312 308 295 288 236 255 305 318 341 347 348 303 253 234 223 238 237 239 244 253 261 258 244 253
350 344 342 343 348 350 350 350 350 345 343 341 338 337 336 332 329 327 324 319 317 316 315 306 292 276 220 247 346 340 322 306 268 301 275 251 245 240 284 261 265 310 291 285 287 291 279
347 340 342 356 356 353 353 350 347 344 341 341 341 341 338 334 330 328 324 318 315 314 309 306 286 218 211 254 351 359 349 302 257 252 274 260 256 237 269 268 237 248 271 275 269 259 249
346 350 6 359 354 353 351 348 346 345 344 343 343 341 338 335 331 329 323 315 315 311 303 307 259 196 257 72 43 19 348 331 311 296 239 258 228 243 243 254 267 266 271 273 267 258 252
8 1 2 359 356 353 349 348 347 347 346 343 340 339 336 333 330 327 320 316 313 308 319 311 164 224 345 29 8 2 357 329 312 308 269 224 189 238 228 247 268 229 262 266 274 256 269
7 2 3 0 354 351 351 350 349 348 345 340 338 336 333 330 331 328 322 326 346 13 348 97 55 249 44 349 12 354 347 339 324 341 352 359 261 254 238 247 258 282 275 279 277 279 280
10 7 1 358 355 354 354 351 347 344 342 339 336 335 333 330 332 333 337 345 1 17 14 356 301 274 26 34 60 7 350 325 352 344 347 339 276 283 324 300 290 282 274 267 271 288 292
12 7 3 3 359 356 353 349 346 344 342 340 338 335 333 331 335 354 9 56 41 303 304 330 321 265 20 347 18 7 351 11 341 340 341 277 300 349 315 350 319 284 277 272 276 275 320
13 7 6 4 0 358 353 349 347 346 343 340 338 336 335 333 344 36 61 61 322 304 273 332 56 18 10 34 44 1 4 330 4 345 355 311 14 350 350 42 2 331 283 291 295 307 272
17 14 6 4 1 358 356 353 349 346 342 341 341 340 338 333 226 343 345 337 325 277 261 50 25 24 359 126 70 26 8 349 10 347 346 65 17 16 43 19 351 315 1 316 303 306 274
21 16 8 6 3 359 357 353 350 346 345 343 342 343 343 23 314 327 330 321 307 206 282 38 44 38 34 64 348 17 5 11 25 14 341 32 16 25 18 349 331 321 316 287 274 263 273
24 19 13 9 5 360 358 355 351 347 346 344 345 344 341 338 319 14 326 311 223 228 61 13 36 360 22 45 37 46 29 38 41 352 70 60 59 36 350 321 339 344 316 284 258 242 247
30 22 18 13 6 3 359 356 352 348 347 344 343 353 29 353 332 320 312 249 255 8 350 359 339 340 49 13 25 16 42 40 33 354 15 336 46 59 13 358 350 358 350 295 209 187 262
34 25 19 14 8 4 1 356 351 348 346 344 346 13 34 43 331 319 287 261 49 19 7 345 336 343 56 16 31 32 30 37 32 14 314 360 11 20 22 25 308 340 350 2 288 277 36
35 27 20 15 10 6 1 356 352 347 347 347 344 36 21 347 344 312 357 49 24 356 339 332 329 19 35 15 354 18 54 24 25 17 354 347 88 48 37 42 16 342 22 309 275 231 252
37 30 21 16 12 7 1 357 353 349 348 352 29 65 17 345 335 23 60 89 75 15 330 341 10 22 3 6 19 21 30 17 351 358 335 9 312 21 41 15 32 34 356 202 176 294 178
38 31 22 19 13 7 3 358 356 354 348 358 53 75 347 341 343 51 60 64 45 23 8 13 16 13 27 12 11 29 12 74 5 342 348 349 318 62 48 20 13 10 11 352 293 303 327
40 32 27 22 15 9 4 360 360 360 350 38 39 63 341 338 51 47 48 17 18 14 13 40 43 44 27 21 24 47 28 8 2 347 7 17 31 74 100 70 25 21 4 9 324 31 22
42 34 30 24 17 11 6 5 2 4 12 18 69 69 8 5 58 56 61 54 48 24 19 17 18 22 16 30 68 35 24 13 12 0 12 1 36 146 148 141 27 25 21 32 90 350 29
44 38 32 29 19 15 12 8 6 3 10 70 81 38 30 47 55 38 26 15 29 31 47 35 22 29 23 31 27 33 6 5 9 1 23 41 53 78 99 93 48 33 27 24 35 59 61
46 41 35 30 24 18 18 12 7 9 10 83 26 62 353 6 31 50 52 7 12 14 3 21 51 35 7 41 27 20 9 358 354 6 19 67 96 104 112 98 71 47 33 32 42 35 38
51 44 37 34 28 27 23 19 13 10 24 66 95 118 50 40 3 33 15 18 16 351 5 6 43 21 31 61 31 16 340 18 25 337 34 347 129 150 193 235 3 41 27 32 42 32 28
54 47 41 36 33 32 28 27 21 13 39 74 43 72 95 13 26 43 18 355 357 326 83 41 328 315 42 16 314 342 39 84 100 21 7 27 137 223 84 43 189 19 7 1 51 38 21
58 52 46 40 38 37 37 34 33 31 54 87 55 82 80 44 54 38 0 322 343 358 332 340 307 15 62 197 127 97 85 113 183 52 32 28 37 354 77 254 56 57 12 353 338 59 28
60 55 51 47 45 44 43 41 46 46 55 78 39 70 100 86 16 76 10 355 288 271 342 297 14 9 174 155 170 24 22 11 356 13 22 38 36 68 23 40 99 341 356 342 323 180 21
65 57 53 54 55 52 48 52 50 56 67 80 53 340 80 110 14 285 330 18 13 350 56 354 78 171 203 2 40 46 39 310 0 344 0 21 21 47 19 44 32 24 341 355 212 191 4
67 62 59 62 62 56 54 55 57 67 67 82 52 15 84 99 62 230 33 353 195 295 312 321 343 358 310 47 50 46 62 316 27 11 338 2 359 23 7 10 92 6 358 327 15 328 332
73 67 64 65 68 65 64 66 67 67 64 76 60 29 94 96 90 170 165 17 334 345 9 349 262 44 40 56 53 52 55 35 36 13 347 8 347 8 344 345 12 10 357 6 329 326 330
76 77 70 70 73 72 69 74 77 74 73 75 68 45 60 73 103 175 193 216 229 252 304 17 75 10 44 79 59 138 85 86 347 31 16 18 20 319 338 304 317 337 325 302 326 329 329